User: anonymous   Login
Location: Albany
(35.0000°S, 118.0000°E)
Time: 03:08:32
(UTC-05:00)
Language:

Transit 2A - Orbit

View from above orbital plane
View from above orbital plane
View from above satellite
View from above satellite

Ground track
Ground track

The orbit data is extracted from the following two-line orbital elements,

1 00045U 60007A   17054.88386512 -.00000006  00000-0  25461-4 0  9999
2 00045  66.6962 328.1001 0249071 116.7398 245.9425 14.33537162949322
Epoch (UTC): 23 February 2017 21:12:45
Eccentricity: 0.0249071
inclination: 66.6962°
perigee height: 601 km
apogee height: 958 km
right ascension of ascending node: 328.1001°
argument of perigee: 116.7398°
revolutions per day: 14.33537162
mean anomaly at epoch: 245.9425°
orbit number at epoch: 94932

The dashed part of the orbit path shows where the satellite is in the earth's shadow,  

DLR